Terminal Aerodrome Forecast
Issued by NWS

Home | Current Version | Previous Version | Text Only | Print | Product List | Glossary On
Versions: 1 2 3 4 5 6 7 8 9 10 11 12
000
FTUS45 KPSR 291124
TAFIPL
TAF
KIPL 291124Z 2912/3012 13006KT P6SM SKC
     FM300000 19006KT P6SM SKC
     FM300600 12006KT P6SM FEW250=

USA.gov is the U.S. government's official web portal to all federal, state and local government web resources and services.